| time (UTC) | temp F | wind direction | speed MPH | gust MPH | rain 1hr in | rain 24hr in | rain mn in | humidity % | barometer mb |
| 20260508065450 | 58 | 71 | 0.0 | 1.0 | 0.00 | 0.00 | 0.00 | 94 | 1017.3 |
| 20260508064949 | 58 | 70 | 0.0 | 1.0 | 0.00 | 0.00 | 0.00 | 94 | 1017.3 |
| 20260508064446 | 58 | 72 | 2.0 | 2.0 | 0.00 | 0.00 | 0.00 | 94 | 1017.0 |
| 20260508063943 | 58 | 73 | 0.0 | 0.0 | 0.00 | 0.00 | 0.00 | 93 | 1017.3 |
| 20260508063440 | 58 | 73 | 0.0 | 0.0 | 0.00 | 0.00 | 0.00 | 93 | 1017.0 |
| 20260508062938 | 58 | 73 | 0.0 | 0.0 | 0.00 | 0.00 | 0.00 | 93 | 1017.2 |
| 20260508062436 | 58 | 73 | 0.0 | 0.0 | 0.00 | 0.00 | 0.00 | 93 | 1017.1 |
| 20260508061932 | 58 | 73 | 0.0 | 0.0 | 0.00 | 0.00 | 0.00 | 93 | 1017.1 |
| 20260508061430 | 58 | 73 | 0.0 | 0.0 | 0.00 | 0.00 | 0.00 | 93 | 1017.0 |
| 20260508060926 | 58 | 73 | 0.0 | 0.0 | 0.00 | 0.00 | 0.00 | 93 | 1017.1 |
| 20260508060424 | 58 | 73 | 0.0 | 0.0 | 0.00 | 0.00 | 0.00 | 92 | 1017.5 |
| 20260508055919 | 58 | 73 | 0.0 | 0.0 | 0.00 | 0.00 | 0.00 | 92 | 1017.3 |
| 20260508055416 | 58 | 73 | 0.0 | 0.0 | 0.00 | 0.00 | 0.00 | 92 | 1017.4 |
| 20260508054913 | 58 | 73 | 1.0 | 1.0 | 0.00 | 0.00 | 0.00 | 92 | 1017.5 |
| 20260508054410 | 58 | 73 | 0.0 | 0.0 | 0.00 | 0.00 | 0.00 | 92 | 1017.5 |
| 20260508053907 | 58 | 73 | 0.0 | 0.0 | 0.00 | 0.00 | 0.00 | 92 | 1017.4 |
| 20260508053404 | 58 | 73 | 0.0 | 0.0 | 0.00 | 0.00 | 0.00 | 91 | 1017.3 |
| 20260508052902 | 59 | 73 | 1.0 | 1.0 | 0.00 | 0.00 | 0.00 | 91 | 1017.3 |
| 20260508052359 | 59 | 73 | 0.0 | 1.0 | 0.00 | 0.00 | 0.00 | 91 | 1017.5 |
| 20260508051855 | 59 | 73 | 0.0 | 1.0 | 0.00 | 0.00 | 0.00 | 91 | 1017.4 |
| 20260508051351 | 59 | 73 | 1.0 | 1.0 | 0.00 | 0.00 | 0.00 | 91 | 1017.5 |
| 20260508050847 | 59 | 73 | 0.0 | 0.0 | 0.00 | 0.00 | 0.00 | 91 | 1017.4 |
| 20260508050344 | 58 | 73 | 1.0 | 1.0 | 0.00 | 0.00 | 0.00 | 91 | 1017.5 |
| 20260508045840 | 58 | 73 | 0.0 | 0.0 | 0.00 | 0.00 | 0.00 | 91 | 1017.5 |
| 20260508045338 | 58 | 73 | 0.0 | 0.0 | 0.00 | 0.00 | 0.00 | 91 | 1017.5 |
| 20260508044836 | 58 | 73 | 0.0 | 0.0 | 0.00 | 0.00 | 0.00 | 91 | 1017.4 |
| 20260508044331 | 58 | 73 | 0.0 | 0.0 | 0.00 | 0.00 | 0.00 | 90 | 1017.2 |
| 20260508043828 | 58 | 73 | 0.0 | 0.0 | 0.00 | 0.00 | 0.00 | 90 | 1017.2 |
| 20260508043325 | 59 | 73 | 0.0 | 0.0 | 0.00 | 0.00 | 0.00 | 90 | 1017.3 |
| 20260508042821 | 59 | 73 | 1.0 | 1.0 | 0.00 | 0.00 | 0.00 | 90 | 1017.2 |
| 20260508042319 | 59 | 73 | 1.0 | 1.0 | 0.00 | 0.00 | 0.00 | 90 | 1017.3 |
| 20260508041816 | 59 | 76 | 0.0 | 1.0 | 0.00 | 0.00 | 0.00 | 90 | 1017.1 |
| 20260508041312 | 59 | 76 | 0.0 | 0.0 | 0.00 | 0.00 | 0.00 | 90 | 1017.0 |
| 20260508040809 | 59 | 76 | 0.0 | 0.0 | 0.00 | 0.00 | 0.00 | 89 | 1017.4 |
| 20260508040307 | 59 | 76 | 0.0 | 0.0 | 0.00 | 0.00 | 0.00 | 89 | 1017.2 |
| 20260508035803 | 59 | 76 | 0.0 | 0.0 | 0.00 | 0.00 | 0.00 | 87 | 1017.5 |
| 20260508035301 | 60 | 76 | 0.0 | 0.0 | 0.00 | 0.00 | 0.00 | 87 | 1017.4 |
| 20260508034757 | 60 | 75 | 1.0 | 1.0 | 0.00 | 0.00 | 0.00 | 87 | 1017.3 |
| 20260508034255 | 60 | 180 | 1.0 | 1.0 | 0.00 | 0.00 | 0.00 | 87 | 1017.4 |
| 20260508033752 | 60 | 182 | 1.0 | 1.0 | 0.00 | 0.00 | 0.00 | 87 | 1017.4 |
| 20260508033250 | 60 | 182 | 0.0 | 0.0 | 0.00 | 0.00 | 0.00 | 87 | 1017.5 |
| 20260508032747 | 60 | 182 | 0.0 | 0.0 | 0.00 | 0.00 | 0.00 | 86 | 1017.2 |
| 20260508032244 | 60 | 182 | 0.0 | 0.0 | 0.00 | 0.00 | 0.00 | 86 | 1017.1 |
| 20260508031741 | 60 | 182 | 0.0 | 0.0 | 0.00 | 0.00 | 0.00 | 86 | 1017.0 |
| 20260508031237 | 60 | 182 | 0.0 | 0.0 | 0.00 | 0.00 | 0.00 | 85 | 1017.1 |
| 20260508030734 | 60 | 182 | 0.0 | 0.0 | 0.00 | 0.00 | 0.00 | 85 | 1017.0 |
| 20260508030231 | 60 | 182 | 0.0 | 0.0 | 0.00 | 0.00 | 0.00 | 85 | 1017.2 |
| 20260508025727 | 60 | 182 | 0.0 | 0.0 | 0.00 | 0.00 | 0.00 | 84 | 1017.2 |
| 20260508025225 | 60 | 182 | 0.0 | 0.0 | 0.00 | 0.00 | 0.00 | 84 | 1017.3 |
| 20260508024720 | 60 | 182 | 0.0 | 0.0 | 0.00 | 0.00 | 0.00 | 83 | 1017.1 |
| 20260508024218 | 61 | 182 | 0.0 | 0.0 | 0.00 | 0.00 | 0.00 | 83 | 1017.0 |
| 20260508023714 | 61 | 182 | 0.0 | 0.0 | 0.00 | 0.00 | 0.00 | 83 | 1016.7 |
| 20260508023212 | 61 | 182 | 0.0 | 0.0 | 0.00 | 0.00 | 0.00 | 83 | 1016.7 |
| 20260508022707 | 61 | 182 | 0.0 | 0.0 | 0.00 | 0.00 | 0.00 | 82 | 1016.9 |
| 20260508022205 | 62 | 182 | 0.0 | 0.0 | 0.00 | 0.00 | 0.00 | 82 | 1016.8 |
| 20260508021701 | 62 | 182 | 0.0 | 0.0 | 0.00 | 0.00 | 0.00 | 81 | 1016.7 |
| 20260508021156 | 62 | 182 | 0.0 | 0.0 | 0.00 | 0.00 | 0.00 | 78 | 1016.8 |
| 20260508020654 | 62 | 182 | 0.0 | 0.0 | 0.00 | 0.00 | 0.00 | 79 | 1016.7 |
| 20260508020151 | 62 | 182 | 0.0 | 0.0 | 0.00 | 0.00 | 0.00 | 79 | 1016.8 |
| 20260508015649 | 63 | 182 | 0.0 | 0.0 | 0.00 | 0.00 | 0.00 | 78 | 1016.9 |
| 20260508015146 | 63 | 182 | 0.0 | 1.0 | 0.00 | 0.00 | 0.00 | 78 | 1016.9 |
| 20260508014642 | 63 | 182 | 0.0 | 0.0 | 0.00 | 0.00 | 0.00 | 78 | 1016.9 |
| 20260508014138 | 63 | 182 | 1.0 | 1.0 | 0.00 | 0.00 | 0.00 | 77 | 1016.6 |
| 20260508013634 | 63 | 182 | 0.0 | 0.0 | 0.00 | 0.00 | 0.00 | 77 | 1016.6 |
| 20260508013131 | 64 | 183 | 1.0 | 2.0 | 0.00 | 0.00 | 0.00 | 77 | 1016.8 |
| 20260508012629 | 64 | 182 | 1.0 | 1.0 | 0.00 | 0.00 | 0.00 | 76 | 1016.7 |
| 20260508012126 | 64 | 182 | 1.0 | 1.0 | 0.00 | 0.00 | 0.00 | 76 | 1016.8 |
| 20260508011624 | 64 | 182 | 1.0 | 1.0 | 0.00 | 0.00 | 0.00 | 76 | 1016.7 |
| 20260508011121 | 64 | 183 | 2.0 | 2.0 | 0.00 | 0.00 | 0.00 | 75 | 1016.7 |
| 20260508010618 | 64 | 185 | 1.0 | 1.0 | 0.00 | 0.00 | 0.00 | 75 | 1016.5 |
| 20260508010116 | 65 | 176 | 2.0 | 2.0 | 0.00 | 0.00 | 0.00 | 74 | 1016.6 |
| 20260508005612 | 65 | 164 | 1.0 | 1.0 | 0.00 | 0.00 | 0.00 | 73 | 1016.7 |
| 20260508005109 | 65 | 160 | 1.0 | 1.0 | 0.00 | 0.00 | 0.00 | 72 | 1016.6 |
| 20260508004605 | 66 | 151 | 2.0 | 2.0 | 0.00 | 0.00 | 0.00 | 71 | 1016.5 |
| 20260508004102 | 66 | 190 | 2.0 | 2.0 | 0.00 | 0.00 | 0.00 | 71 | 1016.8 |
| 20260508003558 | 66 | 174 | 2.0 | 3.0 | 0.00 | 0.00 | 0.00 | 70 | 1016.6 |
| 20260508003056 | 66 | 190 | 3.0 | 3.0 | 0.00 | 0.00 | 0.00 | 70 | 1016.6 |
| 20260508002552 | 66 | 188 | 3.0 | 3.0 | 0.00 | 0.00 | 0.00 | 69 | 1016.8 |
| 20260508002050 | 66 | 182 | 3.0 | 3.0 | 0.00 | 0.00 | 0.00 | 68 | 1016.7 |
| 20260508001545 | 66 | 182 | 4.0 | 6.0 | 0.00 | 0.00 | 0.00 | 68 | 1016.6 |
| 20260508001041 | 67 | 146 | 3.0 | 3.0 | 0.00 | 0.00 | 0.00 | 67 | 1016.6 |
| 20260508000537 | 67 | 155 | 3.0 | 5.0 | 0.00 | 0.00 | 0.00 | 67 | 1016.5 |
| 20260508000035 | 67 | 194 | 4.0 | 5.0 | 0.00 | 0.00 | 0.00 | 67 | 1016.6 |
| 20260507235531 | 67 | 170 | 3.0 | 3.0 | 0.00 | 0.00 | 0.00 | 68 | 1016.5 |
| 20260507235029 | 67 | 190 | 5.0 | 6.0 | 0.00 | 0.00 | 0.00 | 67 | 1016.5 |
| 20260507234525 | 68 | 193 | 6.0 | 7.0 | 0.00 | 0.00 | 0.00 | 66 | 1016.7 |
| 20260507234022 | 68 | 179 | 4.0 | 6.0 | 0.00 | 0.00 | 0.00 | 66 | 1016.7 |
| 20260507233518 | 68 | 176 | 7.0 | 8.0 | 0.00 | 0.00 | 0.00 | 64 | 1016.7 |
| 20260507233017 | 68 | 181 | 7.0 | 8.0 | 0.00 | 0.00 | 0.00 | 64 | 1016.6 |
| 20260507232513 | 69 | 184 | 6.0 | 7.0 | 0.00 | 0.00 | 0.00 | 63 | 1016.7 |
| 20260507232010 | 70 | 188 | 4.0 | 5.0 | 0.00 | 0.00 | 0.00 | 62 | 1016.8 |
| 20260507231507 | 71 | 81 | 0.0 | 0.0 | 0.00 | 0.00 | 0.00 | 54 | 1016.5 |
| 20260507231004 | 71 | 81 | 0.0 | 0.0 | 0.00 | 0.00 | 0.00 | 51 | 1016.3 |
| 20260507230501 | 71 | 81 | 1.0 | 1.0 | 0.00 | 0.00 | 0.00 | 49 | 1016.6 |
| 20260507225956 | 71 | 81 | 0.0 | 0.0 | 0.00 | 0.00 | 0.00 | 53 | 1016.8 |
| 20260507225452 | 71 | 81 | 1.0 | 1.0 | 0.00 | 0.00 | 0.00 | 56 | 1016.6 |
| 20260507224949 | 71 | 82 | 2.0 | 2.0 | 0.00 | 0.00 | 0.00 | 49 | 1016.9 |
| 20260507224444 | 71 | 97 | 3.0 | 3.0 | 0.00 | 0.00 | 0.00 | 49 | 1016.7 |
| 20260507223941 | 71 | 90 | 2.0 | 2.0 | 0.00 | 0.00 | 0.00 | 48 | 1016.8 |
| 20260507223437 | 71 | 76 | 1.0 | 1.0 | 0.00 | 0.00 | 0.00 | 49 | 1016.7 |
| 20260507222935 | 71 | 66 | 3.0 | 3.0 | 0.00 | 0.00 | 0.00 | 51 | 1016.8 |
| 20260507222432 | 72 | 80 | 3.0 | 5.0 | 0.00 | 0.00 | 0.00 | 48 | 1016.8 |
| 20260507221928 | 72 | 60 | 2.0 | 2.0 | 0.00 | 0.00 | 0.00 | 51 | 1017.0 |
| 20260507221425 | 72 | 55 | 2.0 | 2.0 | 0.00 | 0.00 | 0.00 | 52 | 1016.9 |
| 20260507220920 | 72 | 70 | 3.0 | 3.0 | 0.00 | 0.00 | 0.00 | 50 | 1016.6 |
| 20260507220419 | 73 | 67 | 3.0 | 3.0 | 0.00 | 0.00 | 0.00 | 49 | 1016.8 |
| 20260507215915 | 73 | 92 | 2.0 | 2.0 | 0.00 | 0.00 | 0.00 | 51 | 1016.9 |
| 20260507215412 | 73 | 76 | 1.0 | 2.0 | 0.00 | 0.00 | 0.00 | 47 | 1016.9 |
| 20260507214909 | 73 | 94 | 1.0 | 1.0 | 0.00 | 0.00 | 0.00 | 44 | 1017.0 |
| 20260507214407 | 73 | 72 | 0.0 | 0.0 | 0.00 | 0.00 | 0.00 | 48 | 1016.9 |
| 20260507213902 | 73 | 37 | 1.0 | 1.0 | 0.00 | 0.00 | 0.00 | 47 | 1016.9 |
| 20260507213359 | 74 | 329 | 2.0 | 2.0 | 0.00 | 0.00 | 0.00 | 46 | 1016.9 |
| 20260507212856 | 73 | 29 | 1.0 | 2.0 | 0.00 | 0.00 | 0.00 | 49 | 1017.2 |
| 20260507212352 | 74 | 32 | 3.0 | 5.0 | 0.00 | 0.00 | 0.00 | 49 | 1017.2 |
| 20260507211848 | 74 | 37 | 3.0 | 5.0 | 0.00 | 0.00 | 0.00 | 49 | 1017.2 |
| 20260507211345 | 74 | 65 | 2.0 | 2.0 | 0.00 | 0.00 | 0.00 | 46 | 1017.1 |
| 20260507210842 | 73 | 321 | 4.0 | 5.0 | 0.00 | 0.00 | 0.00 | 47 | 1017.4 |
| 20260507210339 | 73 | 103 | 2.0 | 3.0 | 0.00 | 0.00 | 0.00 | 46 | 1017.0 |
| 20260507205835 | 73 | 114 | 4.0 | 5.0 | 0.00 | 0.00 | 0.00 | 49 | 1017.2 |
| 20260507205332 | 73 | 73 | 4.0 | 5.0 | 0.00 | 0.00 | 0.00 | 50 | 1017.1 |
| 20260507204828 | 73 | 63 | 2.0 | 3.0 | 0.00 | 0.00 | 0.00 | 49 | 1017.2 |
| 20260507204326 | 73 | 85 | 5.0 | 5.0 | 0.00 | 0.00 | 0.00 | 48 | 1017.5 |
| 20260507203824 | 73 | 90 | 1.0 | 2.0 | 0.00 | 0.00 | 0.00 | 50 | 1017.3 |
| 20260507203321 | 74 | 37 | 4.0 | 5.0 | 0.00 | 0.00 | 0.00 | 49 | 1017.7 |
| 20260507202817 | 74 | 47 | 3.0 | 3.0 | 0.00 | 0.00 | 0.00 | 49 | 1017.7 |
| 20260507202314 | 74 | 240 | 2.0 | 2.0 | 0.00 | 0.00 | 0.00 | 44 | 1017.5 |
| 20260507201809 | 74 | 41 | 3.0 | 5.0 | 0.00 | 0.00 | 0.00 | 49 | 1017.4 |
| 20260507201305 | 75 | 69 | 4.0 | 5.0 | 0.00 | 0.00 | 0.00 | 46 | 1017.6 |
| 20260507200802 | 74 | 133 | 0.0 | 0.0 | 0.00 | 0.00 | 0.00 | 45 | 1017.5 |
| 20260507200257 | 73 | 53 | 1.0 | 1.0 | 0.00 | 0.00 | 0.00 | 51 | 1017.6 |
| 20260507195754 | 73 | 62 | 3.0 | 5.0 | 0.00 | 0.00 | 0.00 | 47 | 1017.7 |
| 20260507195251 | 73 | 53 | 4.0 | 6.0 | 0.00 | 0.00 | 0.00 | 50 | 1017.9 |
| 20260507194749 | 74 | 62 | 4.0 | 6.0 | 0.00 | 0.00 | 0.00 | 49 | 1017.8 |
| 20260507194244 | 73 | 87 | 1.0 | 1.0 | 0.00 | 0.00 | 0.00 | 51 | 1018.1 |
| 20260507193741 | 73 | 43 | 3.0 | 3.0 | 0.00 | 0.00 | 0.00 | 51 | 1018.1 |
| 20260507193238 | 73 | 75 | 6.0 | 7.0 | 0.00 | 0.00 | 0.00 | 48 | 1018.0 |
| 20260507192734 | 73 | 13 | 4.0 | 6.0 | 0.00 | 0.00 | 0.00 | 53 | 1018.1 |
| 20260507192231 | 73 | 296 | 3.0 | 3.0 | 0.00 | 0.00 | 0.00 | 50 | 1018.3 |
| 20260507191727 | 73 | 258 | 3.0 | 3.0 | 0.00 | 0.00 | 0.00 | 50 | 1018.5 |
| 20260507191224 | 73 | 46 | 3.0 | 3.0 | 0.00 | 0.00 | 0.00 | 51 | 1018.3 |
| 20260507190721 | 73 | 351 | 6.0 | 7.0 | 0.00 | 0.00 | 0.00 | 52 | 1018.5 |
| 20260507190220 | 72 | 35 | 5.0 | 7.0 | 0.00 | 0.00 | 0.00 | 49 | 1018.3 |
| 20260507185718 | 72 | 19 | 3.0 | 5.0 | 0.00 | 0.00 | 0.00 | 52 | 1018.4 |
| 20260507185214 | 72 | 345 | 5.0 | 6.0 | 0.00 | 0.00 | 0.00 | 53 | 1018.3 |
| 20260507184712 | 72 | 39 | 5.0 | 8.0 | 0.00 | 0.00 | 0.00 | 56 | 1018.6 |
| 20260507184210 | 71 | 6 | 2.0 | 2.0 | 0.00 | 0.00 | 0.00 | 53 | 1018.8 |
| 20260507183706 | 71 | 42 | 3.0 | 6.0 | 0.00 | 0.00 | 0.00 | 54 | 1018.7 |
| 20260507183202 | 71 | 32 | 3.0 | 5.0 | 0.00 | 0.00 | 0.00 | 57 | 1019.1 |
| 20260507182700 | 71 | 59 | 1.0 | 2.0 | 0.00 | 0.00 | 0.00 | 57 | 1019.2 |
| 20260507182155 | 71 | 33 | 1.0 | 2.0 | 0.00 | 0.00 | 0.00 | 55 | 1019.2 |
| 20260507181652 | 71 | 17 | 5.0 | 7.0 | 0.00 | 0.00 | 0.00 | 52 | 1019.2 |
| 20260507181148 | 71 | 2 | 5.0 | 8.0 | 0.00 | 0.00 | 0.00 | 55 | 1019.3 |
| 20260507180639 | 70 | 36 | 4.0 | 7.0 | 0.00 | 0.00 | 0.00 | 57 | 1019.4 |
| 20260507180136 | 69 | 63 | 1.0 | 1.0 | 0.00 | 0.00 | 0.00 | 55 | 1019.3 |
| 20260507175632 | 70 | 333 | 4.0 | 5.0 | 0.00 | 0.00 | 0.00 | 58 | 1019.5 |
| 20260507175129 | 70 | 62 | 5.0 | 6.0 | 0.00 | 0.00 | 0.00 | 59 | 1019.5 |
| 20260507174626 | 69 | 49 | 3.0 | 5.0 | 0.00 | 0.00 | 0.00 | 62 | 1019.6 |
| 20260507174124 | 68 | 44 | 3.0 | 3.0 | 0.00 | 0.00 | 0.00 | 57 | 1019.9 |
| 20260507173621 | 69 | 0 | 5.0 | 5.0 | 0.00 | 0.00 | 0.00 | 59 | 1020.1 |
| 20260507173118 | 69 | 296 | 4.0 | 5.0 | 0.00 | 0.00 | 0.00 | 57 | 1020.1 |
| 20260507172613 | 69 | 41 | 3.0 | 3.0 | 0.00 | 0.00 | 0.00 | 58 | 1020.1 |
| 20260507172111 | 69 | 297 | 3.0 | 3.0 | 0.00 | 0.00 | 0.00 | 55 | 1020.3 |
| 20260507171606 | 69 | 62 | 2.0 | 2.0 | 0.00 | 0.00 | 0.00 | 57 | 1020.6 |
| 20260507171103 | 68 | 48 | 3.0 | 3.0 | 0.00 | 0.00 | 0.00 | 56 | 1020.5 |
| 20260507170600 | 68 | 52 | 3.0 | 5.0 | 0.00 | 0.00 | 0.00 | 60 | 1020.7 |
| 20260507170057 | 68 | 43 | 2.0 | 5.0 | 0.00 | 0.00 | 0.00 | 61 | 1020.9 |
| 20260507165552 | 68 | 232 | 2.0 | 2.0 | 0.00 | 0.00 | 0.00 | 59 | 1020.8 |
| 20260507165049 | 67 | 91 | 0.0 | 1.0 | 0.00 | 0.00 | 0.00 | 61 | 1020.7 |
| 20260507164546 | 67 | 55 | 2.0 | 2.0 | 0.00 | 0.00 | 0.00 | 61 | 1020.7 |
| 20260507164043 | 67 | 102 | 3.0 | 5.0 | 0.00 | 0.00 | 0.00 | 60 | 1020.7 |
| 20260507163540 | 66 | 98 | 2.0 | 2.0 | 0.00 | 0.00 | 0.00 | 59 | 1020.8 |
| 20260507163038 | 66 | 94 | 4.0 | 5.0 | 0.00 | 0.00 | 0.00 | 60 | 1021.1 |
| 20260507162533 | 66 | 59 | 6.0 | 7.0 | 0.00 | 0.00 | 0.00 | 59 | 1020.9 |
| 20260507162030 | 67 | 22 | 3.0 | 5.0 | 0.00 | 0.00 | 0.00 | 59 | 1020.8 |
| 20260507161526 | 67 | 146 | 1.0 | 1.0 | 0.00 | 0.00 | 0.00 | 60 | 1020.7 |
| 20260507161023 | 67 | 40 | 1.0 | 2.0 | 0.00 | 0.00 | 0.00 | 58 | 1021.2 |
| 20260507160519 | 67 | 351 | 5.0 | 6.0 | 0.00 | 0.00 | 0.00 | 61 | 1020.9 |
| 20260507160016 | 66 | 58 | 3.0 | 3.0 | 0.00 | 0.00 | 0.00 | 60 | 1021.1 |
| 20260507155511 | 66 | 19 | 2.0 | 3.0 | 0.00 | 0.00 | 0.00 | 60 | 1021.0 |
| 20260507155009 | 66 | 36 | 3.0 | 3.0 | 0.00 | 0.00 | 0.00 | 61 | 1021.0 |
| 20260507154505 | 65 | 83 | 2.0 | 2.0 | 0.00 | 0.00 | 0.00 | 64 | 1021.1 |
| 20260507154002 | 65 | 20 | 2.0 | 2.0 | 0.00 | 0.00 | 0.00 | 65 | 1021.1 |
| 20260507153459 | 65 | 34 | 5.0 | 6.0 | 0.00 | 0.00 | 0.00 | 63 | 1021.0 |
| 20260507152955 | 64 | 67 | 1.0 | 1.0 | 0.00 | 0.00 | 0.00 | 64 | 1021.1 |
| 20260507152451 | 64 | 23 | 2.0 | 2.0 | 0.00 | 0.00 | 0.00 | 66 | 1021.3 |
| 20260507151948 | 64 | 64 | 4.0 | 6.0 | 0.00 | 0.00 | 0.00 | 65 | 1021.3 |
| 20260507151444 | 63 | 70 | 0.0 | 0.0 | 0.00 | 0.00 | 0.00 | 65 | 1021.4 |
| 20260507150941 | 63 | 59 | 2.0 | 3.0 | 0.00 | 0.00 | 0.00 | 69 | 1021.3 |
| 20260507150438 | 63 | 54 | 2.0 | 2.0 | 0.00 | 0.00 | 0.00 | 71 | 1021.3 |
| 20260507145934 | 63 | 43 | 2.0 | 3.0 | 0.00 | 0.00 | 0.00 | 72 | 1021.6 |
| 20260507145430 | 62 | 75 | 1.0 | 1.0 | 0.00 | 0.00 | 0.00 | 72 | 1021.3 |
| 20260507144927 | 62 | 62 | 2.0 | 2.0 | 0.00 | 0.00 | 0.00 | 73 | 1021.6 |
| 20260507144424 | 62 | 58 | 3.0 | 3.0 | 0.00 | 0.00 | 0.00 | 75 | 1021.6 |
| 20260507143921 | 62 | 64 | 4.0 | 5.0 | 0.00 | 0.00 | 0.00 | 73 | 1021.7 |
| 20260507143418 | 62 | 57 | 1.0 | 2.0 | 0.00 | 0.00 | 0.00 | 76 | 1021.6 |
| 20260507142915 | 61 | 42 | 3.0 | 5.0 | 0.00 | 0.00 | 0.00 | 73 | 1021.5 |
| 20260507142410 | 61 | 54 | 2.0 | 2.0 | 0.00 | 0.00 | 0.00 | 76 | 1021.7 |
| 20260507141908 | 61 | 23 | 2.0 | 2.0 | 0.00 | 0.00 | 0.00 | 75 | 1022.0 |
| 20260507141404 | 60 | 22 | 2.0 | 2.0 | 0.00 | 0.00 | 0.00 | 76 | 1021.8 |
| 20260507140901 | 60 | 52 | 2.0 | 2.0 | 0.00 | 0.00 | 0.00 | 79 | 1022.1 |
| 20260507140357 | 59 | 56 | 2.0 | 2.0 | 0.00 | 0.00 | 0.00 | 81 | 1022.1 |
| 20260507135855 | 59 | 29 | 2.0 | 2.0 | 0.00 | 0.00 | 0.00 | 82 | 1022.1 |
| 20260507135352 | 59 | 29 | 3.0 | 5.0 | 0.00 | 0.00 | 0.00 | 84 | 1022.0 |
| 20260507134849 | 58 | 53 | 0.0 | 0.0 | 0.00 | 0.00 | 0.00 | 88 | 1022.0 |
| 20260507134345 | 57 | 37 | 2.0 | 2.0 | 0.00 | 0.00 | 0.00 | 88 | 1022.1 |
| 20260507133841 | 57 | 34 | 2.0 | 3.0 | 0.00 | 0.00 | 0.00 | 90 | 1022.0 |
| 20260507133337 | 57 | 15 | 3.0 | 5.0 | 0.00 | 0.00 | 0.00 | 91 | 1022.2 |
| 20260507132836 | 56 | 39 | 2.0 | 2.0 | 0.00 | 0.00 | 0.00 | 93 | 1022.0 |
| 20260507132332 | 56 | 29 | 3.0 | 3.0 | 0.00 | 0.00 | 0.00 | 94 | 1022.2 |
| 20260507131829 | 55 | 326 | 3.0 | 3.0 | 0.00 | 0.00 | 0.00 | 94 | 1021.7 |
| 20260507131326 | 55 | 23 | 3.0 | 3.0 | 0.00 | 0.00 | 0.00 | 95 | 1022.0 |
| 20260507130823 | 54 | 334 | 4.0 | 6.0 | 0.00 | 0.00 | 0.00 | 96 | 1022.1 |
| 20260507130320 | 54 | 331 | 2.0 | 2.0 | 0.00 | 0.00 | 0.00 | 96 | 1021.7 |
| 20260507125819 | 53 | 300 | 3.0 | 3.0 | 0.00 | 0.00 | 0.00 | 97 | 1021.5 |
| 20260507125316 | 53 | 317 | 2.0 | 2.0 | 0.00 | 0.00 | 0.00 | 97 | 1021.6 |
| 20260507124813 | 53 | 321 | 2.0 | 2.0 | 0.00 | 0.00 | 0.00 | 97 | 1021.6 |
| 20260507124309 | 52 | 326 | 3.0 | 3.0 | 0.00 | 0.00 | 0.00 | 97 | 1021.7 |
| 20260507123807 | 52 | 299 | 3.0 | 3.0 | 0.00 | 0.00 | 0.00 | 97 | 1021.6 |
| 20260507123259 | 52 | 305 | 3.0 | 3.0 | 0.00 | 0.00 | 0.00 | 97 | 1021.5 |
| 20260507122755 | 52 | 305 | 1.0 | 2.0 | 0.00 | 0.00 | 0.00 | 97 | 1021.4 |
| 20260507122250 | 51 | 302 | 2.0 | 2.0 | 0.00 | 0.00 | 0.00 | 97 | 1021.5 |
| 20260507121746 | 51 | 297 | 2.0 | 2.0 | 0.00 | 0.00 | 0.00 | 97 | 1021.4 |
| 20260507121242 | 51 | 298 | 2.0 | 2.0 | 0.00 | 0.00 | 0.00 | 97 | 1021.2 |
| 20260507120738 | 50 | 283 | 1.0 | 1.0 | 0.00 | 0.00 | 0.00 | 97 | 1021.3 |
| 20260507120236 | 50 | 276 | 1.0 | 1.0 | 0.00 | 0.00 | 0.00 | 97 | 1021.0 |
| 20260507115732 | 50 | 256 | 2.0 | 2.0 | 0.00 | 0.00 | 0.00 | 97 | 1021.0 |
| 20260507115228 | 50 | 296 | 2.0 | 2.0 | 0.00 | 0.00 | 0.00 | 97 | 1021.0 |
| 20260507114723 | 50 | 260 | 1.0 | 2.0 | 0.00 | 0.00 | 0.00 | 97 | 1021.3 |
| 20260507114221 | 49 | 298 | 2.0 | 2.0 | 0.00 | 0.00 | 0.00 | 97 | 1020.9 |
| 20260507113718 | 50 | 336 | 2.0 | 2.0 | 0.00 | 0.00 | 0.00 | 97 | 1020.7 |
| 20260507113215 | 50 | 10 | 2.0 | 2.0 | 0.00 | 0.00 | 0.00 | 97 | 1020.4 |
| 20260507112713 | 50 | 11 | 1.0 | 1.0 | 0.00 | 0.00 | 0.00 | 97 | 1020.1 |
| 20260507112210 | 50 | 14 | 1.0 | 1.0 | 0.00 | 0.00 | 0.00 | 97 | 1020.3 |
| 20260507111707 | 50 | 17 | 1.0 | 1.0 | 0.00 | 0.00 | 0.00 | 97 | 1020.1 |
| 20260507111204 | 50 | 17 | 1.0 | 1.0 | 0.00 | 0.00 | 0.00 | 97 | 1020.0 |
| 20260507110659 | 50 | 18 | 2.0 | 2.0 | 0.00 | 0.00 | 0.00 | 97 | 1020.1 |
| 20260507110156 | 50 | 18 | 1.0 | 1.0 | 0.00 | 0.00 | 0.00 | 97 | 1020.2 |
| 20260507105653 | 50 | 18 | 1.0 | 2.0 | 0.00 | 0.00 | 0.00 | 97 | 1019.8 |
| 20260507105149 | 50 | 19 | 1.0 | 1.0 | 0.00 | 0.00 | 0.00 | 97 | 1019.9 |
| 20260507104647 | 50 | 19 | 1.0 | 1.0 | 0.00 | 0.00 | 0.00 | 97 | 1019.8 |
| 20260507104142 | 50 | 19 | 1.0 | 1.0 | 0.00 | 0.00 | 0.00 | 97 | 1019.6 |
| 20260507103638 | 50 | 19 | 0.0 | 0.0 | 0.00 | 0.00 | 0.00 | 97 | 1019.5 |
| 20260507103135 | 50 | 19 | 0.0 | 0.0 | 0.00 | 0.00 | 0.00 | 97 | 1019.6 |
| 20260507102632 | 50 | 19 | 1.0 | 1.0 | 0.00 | 0.00 | 0.00 | 97 | 1019.8 |
| 20260507102123 | 50 | 19 | 0.0 | 0.0 | 0.00 | 0.00 | 0.00 | 97 | 1019.4 |
| 20260507101619 | 50 | 19 | 1.0 | 1.0 | 0.00 | 0.00 | 0.00 | 97 | 1019.5 |
| 20260507101114 | 50 | 19 | 0.0 | 0.0 | 0.00 | 0.00 | 0.00 | 97 | 1019.4 |
| 20260507100612 | 50 | 19 | 1.0 | 1.0 | 0.00 | 0.00 | 0.00 | 97 | 1019.2 |
| 20260507100110 | 50 | 19 | 2.0 | 2.0 | 0.00 | 0.00 | 0.00 | 97 | 1019.4 |
| 20260507095608 | 50 | 20 | 1.0 | 2.0 | 0.00 | 0.00 | 0.00 | 97 | 1019.3 |
| 20260507095104 | 50 | 22 | 1.0 | 1.0 | 0.00 | 0.00 | 0.00 | 97 | 1019.4 |
| 20260507094600 | 50 | 22 | 1.0 | 2.0 | 0.00 | 0.00 | 0.00 | 97 | 1019.6 |
| 20260507094057 | 50 | 22 | 0.0 | 1.0 | 0.00 | 0.00 | 0.00 | 97 | 1019.6 |
| 20260507093555 | 50 | 22 | 0.0 | 1.0 | 0.00 | 0.00 | 0.00 | 97 | 1019.4 |
| 20260507093054 | 50 | 23 | 1.0 | 1.0 | 0.00 | 0.00 | 0.00 | 97 | 1019.4 |
| 20260507092549 | 50 | 23 | 0.0 | 1.0 | 0.00 | 0.00 | 0.00 | 97 | 1019.4 |
| 20260507092040 | 50 | 23 | 0.0 | 0.0 | 0.00 | 0.00 | 0.00 | 97 | 1019.3 |
| 20260507091537 | 51 | 23 | 0.0 | 0.0 | 0.00 | 0.00 | 0.00 | 97 | 1019.3 |
| 20260507091033 | 51 | 23 | 0.0 | 0.0 | 0.00 | 0.00 | 0.00 | 97 | 1019.0 |
| 20260507090529 | 50 | 27 | 1.0 | 2.0 | 0.00 | 0.00 | 0.00 | 97 | 1019.1 |
| 20260507090026 | 50 | 29 | 1.0 | 1.0 | 0.00 | 0.00 | 0.00 | 97 | 1019.0 |
| 20260507085524 | 50 | 28 | 1.0 | 2.0 | 0.00 | 0.00 | 0.00 | 96 | 1019.1 |
| 20260507085020 | 50 | 30 | 2.0 | 2.0 | 0.00 | 0.00 | 0.00 | 96 | 1019.0 |
| 20260507084517 | 51 | 30 | 1.0 | 2.0 | 0.00 | 0.00 | 0.00 | 96 | 1018.8 |
| 20260507084014 | 51 | 30 | 0.0 | 0.0 | 0.00 | 0.00 | 0.00 | 96 | 1019.0 |
| 20260507083510 | 51 | 30 | 0.0 | 0.0 | 0.00 | 0.00 | 0.00 | 96 | 1019.0 |
| 20260507083007 | 51 | 30 | 1.0 | 1.0 | 0.00 | 0.00 | 0.00 | 96 | 1018.8 |
| 20260507082503 | 51 | 29 | 1.0 | 1.0 | 0.00 | 0.00 | 0.00 | 96 | 1018.9 |
| 20260507081959 | 51 | 18 | 0.0 | 0.0 | 0.00 | 0.00 | 0.00 | 96 | 1018.9 |
| 20260507081455 | 51 | 17 | 0.0 | 1.0 | 0.00 | 0.00 | 0.00 | 96 | 1019.2 |
| 20260507080953 | 51 | 15 | 1.0 | 1.0 | 0.00 | 0.00 | 0.00 | 96 | 1019.1 |
| 20260507080448 | 51 | 15 | 2.0 | 2.0 | 0.00 | 0.00 | 0.00 | 96 | 1019.2 |
| 20260507075944 | 51 | 15 | 2.0 | 2.0 | 0.00 | 0.00 | 0.00 | 96 | 1019.0 |
| 20260507075440 | 51 | 12 | 3.0 | 3.0 | 0.00 | 0.00 | 0.00 | 96 | 1019.0 |
| 20260507074931 | 52 | 14 | 2.0 | 3.0 | 0.00 | 0.00 | 0.00 | 96 | 1019.0 |
| 20260507074428 | 52 | 15 | 2.0 | 2.0 | 0.00 | 0.00 | 0.00 | 96 | 1019.1 |
| 20260507073926 | 52 | 17 | 3.0 | 3.0 | 0.00 | 0.00 | 0.00 | 96 | 1018.9 |
| 20260507073422 | 52 | 24 | 2.0 | 2.0 | 0.00 | 0.00 | 0.00 | 96 | 1019.0 |
| 20260507072919 | 52 | 53 | 2.0 | 2.0 | 0.00 | 0.00 | 0.00 | 95 | 1019.0 |
| 20260507072416 | 52 | 59 | 0.0 | 0.0 | 0.00 | 0.00 | 0.00 | 95 | 1018.9 |
| 20260507071914 | 52 | 59 | 0.0 | 0.0 | 0.00 | 0.00 | 0.00 | 95 | 1018.9 |
| 20260507071410 | 52 | 59 | 0.0 | 0.0 | 0.00 | 0.00 | 0.00 | 95 | 1018.8 |
| 20260507070906 | 52 | 59 | 1.0 | 1.0 | 0.00 | 0.00 | 0.00 | 95 | 1018.9 |
| 20260507070404 | 52 | 59 | 1.0 | 1.0 | 0.00 | 0.00 | 0.00 | 95 | 1018.9 |
| 20260507065901 | 53 | 59 | 1.0 | 1.0 | 0.00 | 0.00 | 0.00 | 95 | 1018.7 |